Flag for Australia

Past Weather in Mildura, Victoria, Australia — Yesterday and Last 2 Weeks

Now
65 °F

Scattered clouds.


Feels Like: 65 °F
Forecast: 66 / 49 °F
Wind: 7 mph from West

Location: Mildura Airport
Current Time: Aug 13, 2020 at 4:35:07 pm
Latest Report: Aug 13, 2020 at 3:00 pm
Visibility: 13 mi
Pressure29.85 "Hg
Humidity: 57%
Dew Point: 49 °F
Location of MilduraLocation

Past Weather in Mildura — Graph

°F

Mildura Temperature Yesterday

Maximum temperature yesterday: 64 °F (at 3:00 pm)
Minimum temperature yesterday: 49 °F (at 6:00 am)
Average temperature yesterday: 55 °F

High & Low Weather Summary for the Past Weeks

 TemperatureHumidityPressure
High69 °F (Aug 2, 4:00 pm)100% (Jul 30, 3:00 am)30.40 "Hg (Jul 30, 3:00 am)
Low31 °F (Aug 6, 5:00 am)22% (Jul 29, 4:00 pm)29.70 "Hg (Aug 7, 3:00 pm)
Average50 °F72%30.08 "Hg
* Reported Jul 29 3:00 pm — Aug 13 3:00 pm, Mildura. Weather by CustomWeather, © 2020

Note: Actual official high and low records may vary slightly from our data, if they occured in-between our weather recording intervals... More about our weather records

Mildura Weather History for the Previous 24 Hours

Scroll right to see more
 ConditionsComfort  
Time TempWeatherWind HumidityBarometerVisibility
3:00 pm
Thu, Aug 13
65 °FScattered clouds.7 mph57%29.85 "Hg12 mi
2:00 pm67 °FMild.10 mph50%29.85 "HgN/A
1:00 pm67 °FMild.13 mph47%29.87 "HgN/A
12:00 pm65 °FMild.10 mph56%29.90 "HgN/A
11:00 am62 °FMild.9 mph68%29.91 "HgN/A
10:00 am59 °FCool.8 mph74%29.92 "HgN/A
9:00 am54 °FCool.6 mph88%29.91 "Hg12 mi
8:00 am49 °FCool.6 mph100%29.90 "HgN/A
7:00 am48 °FCool.5 mph100%29.88 "HgN/A
6:00 am49 °FCool.6 mph100%29.87 "Hg5 mi
5:00 am50 °FCool.6 mph100%29.85 "HgN/A
4:00 am49 °FCool.5 mph100%29.84 "HgN/A
3:00 am50 °FCool.5 mph100%29.84 "HgN/A
2:00 am51 °FCool.5 mph100%29.85 "HgN/A
1:00 am53 °FCool.6 mph100%29.85 "HgN/A
12:00 am51 °FPassing clouds.6 mph100%29.85 "HgN/A
11:00 pm
Wed, Aug 12
53 °FCool.7 mph100%29.85 "HgN/A
10:00 pm54 °FCool.7 mph100%29.86 "HgN/A
9:00 pm54 °FFog.8 mph100%29.84 "HgN/A
8:00 pm54 °FCool.8 mph100%29.81 "HgN/A
7:00 pm54 °FCool.7 mph97%29.80 "HgN/A
6:00 pm54 °FOvercast.12 mph95%29.80 "Hg2 mi
5:00 pm63 °FMild.8 mph66%29.75 "HgN/A
4:00 pm64 °FMild.8 mph61%29.73 "HgN/A
Weather by CustomWeather, © 2020

See weather overview